STARLINK-4718, 53773

Orbit data source: Space-Track

STARLINK-4718, 53773 is a payload satellite owned by SpaceX/Seattle (US) in LEO that was launched on Sun, 11 Sep 2022 UTC via an FALCON 9 launch vehicle from the Air Force Eastern Test Range (AFETR). Payload-class satellites include a variety of spacecraft equipped with specific instruments for various scientific and technological missions. These include communications satellites like Starlink; space stations such as the ISS; scientific satellites like the Hubble; Earth observation satellites from companies like Planet Labs, Umbra, and HawkEye 360; GPS; miniature CubeSats for education and research; and military/defense satellites.

Loading next visibility...
Identifier
53773, 2022-111A
Orbit
LEO
Last TLE update
13 hours ago
Origin
Manufacturer
SpaceX/Seattle
Mission
Operational Commercial Communications
Bus & Motor
STARLINK, Unknown motor
Mass
305 kg wet, ~290 kg dry
Launch date (UTC)
2022-09-11 (3 years ago)
Launch vehicle
FALCON 9
Launch site
Air Force Eastern Test Range (AFETR)
Object type
Payload
Rocket body
Debris
Shape & HBR
Box + 1 Pan, 4.4 m
Radar Cross Section
13.562 m², Large (>1 m²)

Expand to show TLE details & history

TLE from 13 hours ago
0 STARLINK-4718
1 53773U 22111A   25199.44332448 -.00000265  00000-0  14531-5 0  9993
2 53773  53.2165 255.6160 0001038  81.8778 278.2332 15.08837819158488
Epoch: 2025-07-18T10:38Z
TLE epoch observation values (Epoch: 2025-07-18T10:38:23.235Z)
Latitude
0.00001°
Longitude
159.52448°
Altitude
540.545 km
Speed
7.593 km/s
True Right ascension
17h 02m 27s
True Declination
0° 00' 00"
Sunlit
Object was in full shadow at epoch
Visualization orbit readout
Latitude
42.64229°
Longitude
-159.68736°
Altitude
543.276 km
Speed
7.596 km/s
Apparent Right ascension
22h 01m 46s
Apparent Declination
4° 09' 03"
Sunlit
Object is in full shadow
Visualization observer readout
Local Sidereal Time
12:24:19
Azimuth
45.27° ENE
Elevation
-35.119°
Doppler factor
1
Orbital elements
Apogee altitude
540.713 km
Perigee altitude
539.277 km
Semi-major axis
6,918.132 km
Eccentricity
0.0001
Inclination
53.2165°
RAAN
255.616°
Arg. of periapsis
81.8778°
True anomaly
278.22143°
Mean anomaly
278.2332°
Eccentric anomaly
278.22731°
Mean motion
3.7719 °/min
Orbital period
95.44 mins
BSTAR
0.0000014531
Loading maneuver chart data...
Loading SW <> Apogee altitude chart data...
Loading historical data...
Loading historical data...
Loading historical data...
Loading historical data...
Loading historical data...
Loading historical data...
Loading historical data...
|